Weather History for Murray, KY

Change the Weather History Date:

Tuesday, April 9, 2013

  Actual Average (KPAH) Record (KPAH)
Temperature  
Mean Temperature 67 °F 56 °F  
Max Temperature 75 °F 67 °F 86 °F (2011)
Min Temperature 59 °F 44 °F 25 °F (2007)
Degree Days  
Heating Degree Days 0 10  
Month to date heating degree days 99  
Since 1 July heating degree days 3918  
Cooling Degree Days 2 1  
Month to date cooling degree days 9  
Year to date cooling degree days 16  
Growing Degree Days 17 (Base 50)    
Moisture  
Dew Point 60 °F    
Average Humidity 73    
Maximum Humidity 83    
Minimum Humidity 65    
Precipitation  
Precipitation 0.00 in 0.14 in 4.05 in (1942)
Month to date precipitation 1.30  
Year to date precipitation 12.82  
Snow  
Snow 0.00 in 0.00 in T in (1973)
Month to date snowfall 0.0  
Since 1 July snowfall 9.1  
Snow Depth -    
Sea Level Pressure  
Sea Level Pressure 29.97 in    
Wind  
Wind Speed 8 mph (South)    
Max Wind Speed 17 mph    
Max Gust Speed 26 mph    
Visibility 10 miles    
Events      
T = Trace of Precipitation, MM = Missing Value Source: NWS Daily Summary

Daily Weather History Graph

Daily Weather History Graph

Search for Another Location

Airport:

Trip Planner

Search our weather history database for the weather conditions in past years. The results will help you decide how hot, cold, wet, or windy it might be!

Date:

Astronomy

Apr. 09, 2013 Rise Set
Actual Time 6:27 AM CDT 7:22 PM CDT
Civil Twilight 6:01 AM CDT 7:49 PM CDT
Nautical Twilight 5:30 AM CDT 8:20 PM CDT
Astronomical Twilight 4:57 AM CDT 8:53 PM CDT
Moon 5:49 AM CDT (4/9) 6:58 PM CDT (4/9)
Length of Visible Light 13h 48m
Length of Day
12h 55m
Waning Crescent, 1% of the Moon is Illuminated
Apr 9
Waning Crescent
Apr 10
New
Apr 18
First Quarter
Apr 25
Full
May 2
Last Quarter

Hourly Weather History & Observations

Time (CDT) Temp. Dew Point Humidity Pressure Visibility Wind Dir Wind Speed Gust Speed Precip Events Conditions
12:15 AM 59.0 °F 53.6 °F 82% 29.95 in 10.0 mi SSE 4.6 mph - N/A   Clear
12:35 AM 60.8 °F 53.6 °F 77% 29.95 in 10.0 mi SSE 3.5 mph - N/A   Mostly Cloudy
12:55 AM 59.0 °F 53.6 °F 82% 29.94 in 10.0 mi SSE 4.6 mph - N/A   Overcast
1:15 AM 62.6 °F 53.6 °F 72% 29.94 in 10.0 mi SSE 4.6 mph - N/A   Mostly Cloudy
1:35 AM 62.6 °F 53.6 °F 72% 29.94 in 10.0 mi SSE 4.6 mph - N/A   Mostly Cloudy
1:55 AM 62.6 °F 53.6 °F 72% 29.94 in 10.0 mi SSE 5.8 mph - N/A   Mostly Cloudy
2:15 AM 62.6 °F 53.6 °F 72% 29.94 in 10.0 mi SSE 4.6 mph - N/A   Scattered Clouds
2:35 AM 62.6 °F 53.6 °F 72% 29.93 in 10.0 mi South 6.9 mph - N/A   Clear
2:55 AM 62.6 °F 55.4 °F 77% 29.94 in 10.0 mi South 8.1 mph - N/A   Clear
3:15 AM 62.6 °F 55.4 °F 77% 29.93 in 10.0 mi South 8.1 mph - N/A   Clear
3:35 AM 62.6 °F 55.4 °F 77% 29.94 in 10.0 mi SSE 6.9 mph - N/A   Clear
3:55 AM 62.6 °F 55.4 °F 77% 29.94 in 10.0 mi SSE 6.9 mph - N/A   Clear
4:15 AM 62.6 °F 55.4 °F 77% 29.94 in 10.0 mi South 8.1 mph - N/A   Clear
4:35 AM 62.6 °F 55.4 °F 77% 29.94 in 10.0 mi SSE 8.1 mph - N/A   Clear
4:55 AM 62.6 °F 55.4 °F 77% 29.95 in 10.0 mi South 6.9 mph - N/A   Clear
5:15 AM 62.6 °F 57.2 °F 82% 29.97 in 10.0 mi South 5.8 mph - N/A   Partly Cloudy
5:35 AM 62.6 °F 57.2 °F 82% 29.98 in 10.0 mi SSE 5.8 mph - N/A   Mostly Cloudy
5:55 AM 62.6 °F 57.2 °F 82% 29.98 in 10.0 mi SSE 5.8 mph - N/A   Overcast
6:15 AM 62.6 °F 57.2 °F 82% 29.99 in 10.0 mi SSE 5.8 mph - N/A   Overcast
6:35 AM 62.6 °F 57.2 °F 82% 30.00 in 10.0 mi SSE 6.9 mph - N/A   Mostly Cloudy
7:15 AM 62.6 °F 57.2 °F 82% 30.00 in 10.0 mi SSE 8.1 mph - N/A   Partly Cloudy
7:35 AM 64.4 °F 59.0 °F 83% 30.00 in 10.0 mi SSE 6.9 mph - N/A   Clear
7:55 AM 64.4 °F 59.0 °F 83% 30.01 in 10.0 mi SSE 8.1 mph - N/A   Clear
8:15 AM 64.4 °F 59.0 °F 83% 30.02 in 10.0 mi South 8.1 mph - N/A   Scattered Clouds
8:35 AM 64.4 °F 59.0 °F 83% 30.03 in 10.0 mi South 8.1 mph - N/A   Mostly Cloudy
8:55 AM 66.2 °F 59.0 °F 78% 30.03 in 10.0 mi South 11.5 mph 17.3 mph N/A   Mostly Cloudy
9:15 AM 66.2 °F 59.0 °F 78% 30.04 in 10.0 mi South 9.2 mph 16.1 mph N/A   Scattered Clouds
9:35 AM 66.2 °F 59.0 °F 78% 30.04 in 10.0 mi South 12.7 mph 17.3 mph N/A   Partly Cloudy
9:55 AM 68.0 °F 60.8 °F 78% 30.05 in 10.0 mi South 11.5 mph - N/A   Clear
10:15 AM 68.0 °F 60.8 °F 78% 30.04 in 10.0 mi South 8.1 mph 18.4 mph N/A   Clear
10:35 AM 69.8 °F 60.8 °F 73% 30.04 in 10.0 mi South 10.4 mph 16.1 mph N/A   Clear
10:55 AM 71.6 °F 60.8 °F 69% 30.03 in 10.0 mi South 10.4 mph - N/A   Clear
11:15 AM 73.4 °F 60.8 °F 65% 30.04 in 10.0 mi SSW 11.5 mph 20.7 mph N/A   Scattered Clouds
11:35 AM 73.4 °F 60.8 °F 65% 30.04 in 10.0 mi South 12.7 mph 19.6 mph N/A   Mostly Cloudy
11:55 AM 73.4 °F 60.8 °F 65% 30.02 in 10.0 mi South 13.8 mph 21.9 mph N/A   Mostly Cloudy
12:15 PM 73.4 °F 62.6 °F 69% 30.02 in 10.0 mi South 16.1 mph 25.3 mph N/A   Mostly Cloudy
12:35 PM 71.6 °F 62.6 °F 73% 30.02 in 10.0 mi South 13.8 mph 23.0 mph N/A   Overcast
12:55 PM 73.4 °F 62.6 °F 69% 30.01 in 10.0 mi South 13.8 mph 23.0 mph N/A   Overcast
1:15 PM 73.4 °F 62.6 °F 69% 30.01 in 10.0 mi South 16.1 mph 23.0 mph N/A   Overcast
1:35 PM 73.4 °F 62.6 °F 69% 30.01 in 10.0 mi SSW 17.3 mph 26.5 mph N/A   Overcast
1:55 PM 73.4 °F 62.6 °F 69% 30.00 in 10.0 mi South 12.7 mph 18.4 mph N/A   Overcast
2:15 PM 73.4 °F 62.6 °F 69% 29.99 in 10.0 mi South 13.8 mph 20.7 mph N/A   Mostly Cloudy
2:35 PM 75.2 °F 62.6 °F 65% 29.98 in 10.0 mi South 11.5 mph 19.6 mph N/A   Mostly Cloudy
2:55 PM 75.2 °F 62.6 °F 65% 29.98 in 10.0 mi South 16.1 mph 24.2 mph N/A   Overcast
3:15 PM 75.2 °F 62.6 °F 65% 29.97 in 10.0 mi South 12.7 mph 19.6 mph N/A   Mostly Cloudy
3:35 PM 75.2 °F 62.6 °F 65% 29.97 in 10.0 mi South 12.7 mph 20.7 mph N/A   Mostly Cloudy
3:55 PM 75.2 °F 62.6 °F 65% 29.96 in 10.0 mi South 11.5 mph 19.6 mph N/A   Overcast
4:15 PM 75.2 °F 62.6 °F 65% 29.95 in 10.0 mi SSW 10.4 mph 17.3 mph N/A   Mostly Cloudy
4:35 PM 75.2 °F 62.6 °F 65% 29.95 in 10.0 mi South 12.7 mph 18.4 mph N/A   Overcast
4:55 PM 75.2 °F 62.6 °F 65% 29.95 in 10.0 mi South 9.2 mph 20.7 mph N/A   Mostly Cloudy
5:15 PM 75.2 °F 62.6 °F 65% 29.95 in 10.0 mi South 11.5 mph 21.9 mph N/A   Mostly Cloudy
5:35 PM 75.2 °F 62.6 °F 65% 29.94 in 10.0 mi South 15.0 mph 20.7 mph N/A   Mostly Cloudy
5:55 PM 75.2 °F 62.6 °F 65% 29.93 in 10.0 mi South 11.5 mph 21.9 mph N/A   Mostly Cloudy
6:15 PM 75.2 °F 62.6 °F 65% 29.94 in 10.0 mi South 11.5 mph 19.6 mph N/A   Mostly Cloudy
6:35 PM 75.2 °F 62.6 °F 65% 29.94 in 10.0 mi South 6.9 mph - N/A   Mostly Cloudy
6:55 PM 73.4 °F 62.6 °F 69% 29.94 in 10.0 mi SSE 6.9 mph - N/A   Overcast
7:15 PM 73.4 °F 62.6 °F 69% 29.94 in 10.0 mi South 8.1 mph - N/A   Mostly Cloudy
7:35 PM 73.4 °F 62.6 °F 69% 29.95 in 10.0 mi South 5.8 mph - N/A   Mostly Cloudy
7:55 PM 73.4 °F 62.6 °F 69% 29.95 in 10.0 mi South 8.1 mph - N/A   Overcast
8:15 PM 71.6 °F 62.6 °F 73% 29.94 in 10.0 mi South 8.1 mph - N/A   Mostly Cloudy
8:35 PM 71.6 °F 62.6 °F 73% 29.95 in 10.0 mi South 9.2 mph - N/A   Mostly Cloudy
8:55 PM 71.6 °F 62.6 °F 73% 29.95 in 10.0 mi South 8.1 mph - N/A   Mostly Cloudy
9:55 PM 71.6 °F 62.6 °F 73% 29.96 in 10.0 mi South 8.1 mph - N/A   Unknown
10:15 PM 71.6 °F 62.6 °F 73% 29.96 in 10.0 mi South 8.1 mph - N/A   Overcast
10:35 PM 71.6 °F 62.6 °F 73% 29.95 in 10.0 mi South 9.2 mph - N/A   Mostly Cloudy
10:55 PM 71.6 °F 62.6 °F 73% 29.94 in 10.0 mi South 9.2 mph 17.3 mph N/A   Partly Cloudy
11:15 PM 71.6 °F 62.6 °F 73% 29.93 in 10.0 mi South 12.7 mph 18.4 mph N/A   Clear
11:35 PM 71.6 °F 62.6 °F 73% 29.92 in 10.0 mi South 8.1 mph 16.1 mph N/A   Clear
11:55 PM 71.6 °F 62.6 °F 73% 29.91 in 10.0 mi South 11.5 mph 18.4 mph N/A   Clear